PSMOD KATS-KCNM

Flight info

Callsign PSMOD
Flight time 0h 19m
Altitude 7000
Route KEREY/N0179F080
Aircraft C208/L-SDFGR/C

Departure

Time 2026-04-30 19:14
Airport Artesia Municipal Airport (KATS)

Arrival

Time 2026-04-30 19:33
Airport Cavern City Air Terminal (KCNM)
Time Latitude Longitude Altitude Speed Heading
2026-04-30 18:56 32.85190 -104.46290 3533 ft 0 kts 50°
2026-04-30 19:06 32.85177 -104.46310 3533 ft 4 kts 53°
2026-04-30 19:07 32.85159 -104.46312 3533 ft 0 kts 315°
2026-04-30 19:09 32.85159 -104.46313 3533 ft 1 kts 315°
2026-04-30 19:09 32.85193 -104.46348 3534 ft 11 kts 326°
2026-04-30 19:09 32.85266 -104.46391 3533 ft 9 kts 289°
2026-04-30 19:10 32.85271 -104.46611 3535 ft 0 kts 269°
2026-04-30 19:12 32.85271 -104.46621 3534 ft 5 kts 269°
2026-04-30 19:12 32.85256 -104.46681 3535 ft 10 kts 218°
2026-04-30 19:13 32.85221 -104.46662 3535 ft 0 kts 135°
2026-04-30 19:13 32.84889 -104.46242 3532 ft 75 kts 133°
2026-04-30 19:13 32.84501 -104.45782 3687 ft 77 kts 133°
2026-04-30 19:14 32.84113 -104.45324 3828 ft 83 kts 143°
2026-04-30 19:14 32.83639 -104.44933 3998 ft 86 kts 137°
2026-04-30 19:14 32.83148 -104.44501 4161 ft 89 kts 141°
2026-04-30 19:14 32.82646 -104.44049 4323 ft 93 kts 139°
2026-04-30 19:15 32.82133 -104.43565 4499 ft 96 kts 139°
2026-04-30 19:15 32.81064 -104.42507 4823 ft 105 kts 137°
2026-04-30 19:15 32.80496 -104.41937 4978 ft 111 kts 137°
2026-04-30 19:16 32.79858 -104.41292 4983 ft 127 kts 138°
2026-04-30 19:16 32.79147 -104.40574 4987 ft 140 kts 137°
2026-04-30 19:16 32.77594 -104.38990 4977 ft 154 kts 138°
2026-04-30 19:17 32.76784 -104.38162 4983 ft 153 kts 138°
2026-04-30 19:17 32.75146 -104.36492 4977 ft 157 kts 137°
2026-04-30 19:17 32.74315 -104.35649 4976 ft 159 kts 138°
2026-04-30 19:18 32.73207 -104.34522 4979 ft 158 kts 138°
2026-04-30 19:18 32.72082 -104.33374 4985 ft 160 kts 139°
2026-04-30 19:18 32.70967 -104.32241 5000 ft 157 kts 139°
2026-04-30 19:19 32.70132 -104.31393 4997 ft 159 kts 139°
2026-04-30 19:19 32.69294 -104.30540 4999 ft 159 kts 139°
2026-04-30 19:19 32.67606 -104.28825 4996 ft 159 kts 139°
2026-04-30 19:20 32.67049 -104.28260 4994 ft 159 kts 139°
2026-04-30 19:20 32.66213 -104.27412 4991 ft 158 kts 138°
2026-04-30 19:20 32.64523 -104.25699 4993 ft 160 kts 138°
2026-04-30 19:21 32.63675 -104.24839 4991 ft 160 kts 138°
2026-04-30 19:21 32.61979 -104.23120 4991 ft 160 kts 138°
2026-04-30 19:22 32.60283 -104.21399 4994 ft 160 kts 139°
2026-04-30 19:22 32.57749 -104.18834 4992 ft 158 kts 139°
2026-04-30 19:23 32.55278 -104.16336 4991 ft 156 kts 139°
2026-04-30 19:24 32.53631 -104.14671 4995 ft 155 kts 139°
2026-04-30 19:24 32.52812 -104.13842 4995 ft 155 kts 139°
2026-04-30 19:24 32.51168 -104.12181 4993 ft 155 kts 139°
2026-04-30 19:25 32.48647 -104.09798 4990 ft 155 kts 158°
2026-04-30 19:26 32.46571 -104.10076 4992 ft 155 kts 207°
2026-04-30 19:26 32.44646 -104.11191 4995 ft 155 kts 205°
2026-04-30 19:26 32.43675 -104.11747 4996 ft 155 kts 205°
2026-04-30 19:27 32.41726 -104.12860 4997 ft 156 kts 205°
2026-04-30 19:27 32.39772 -104.13978 4998 ft 157 kts 205°
2026-04-30 19:28 32.38788 -104.14542 4999 ft 157 kts 205°
2026-04-30 19:28 32.36814 -104.15667 4998 ft 157 kts 205°
2026-04-30 19:29 32.34839 -104.16796 4998 ft 157 kts 205°
2026-04-30 19:29 32.33854 -104.17358 4999 ft 158 kts 205°
2026-04-30 19:30 32.30899 -104.19044 4997 ft 158 kts 205°
2026-04-30 19:30 32.29309 -104.20678 4989 ft 156 kts 250°
2026-04-30 19:31 32.29746 -104.23049 4755 ft 156 kts 314°
2026-04-30 19:31 32.30652 -104.23700 4467 ft 145 kts 338°
2026-04-30 19:31 32.32150 -104.24441 3988 ft 88 kts 336°
2026-04-30 19:32 32.32686 -104.24739 3749 ft 85 kts 335°
2026-04-30 19:32 32.33212 -104.25014 3513 ft 83 kts 336°
2026-04-30 19:32 32.33734 -104.25258 3320 ft 79 kts 337°
2026-04-30 19:32 32.34224 -104.25510 3254 ft 73 kts 339°
2026-04-30 19:33 32.34641 -104.25724 3250 ft 59 kts 336°
2026-04-30 19:33 32.34989 -104.25908 3248 ft 52 kts 335°
2026-04-30 19:33 32.35157 -104.25992 3248 ft 18 kts 351°
2026-04-30 19:33 32.35220 -104.25913 3249 ft 12 kts 64°
2026-04-30 19:34 32.35243 -104.25855 3249 ft 4 kts 64°
2026-04-30 19:34 32.35247 -104.25846 3249 ft 0 kts 64°
2026-04-30 19:34 32.34675 -104.25298 3250 ft 0 kts 61°